DUCHIFAT-1
1 40021U 14033M 17317.31886843 .00000705 00000-0 78800-4 0 9997
2 40021 97.9145 230.6623 0013147 163.9767 196.1868 14.90090871184800
NANOSATCBR1
1 40024U 14033Q 17317.52399078 .00000518 00000-0 60497-4 0 9997
2 40024 097.9094 229.5111 0012464 164.5712 195.5887 14.89387067184250
EO-79
1 40025U 14033R 17317.51728333 .00000430 00000-0 52179-4 0 9998
2 40025 97.9067 228.3159 0012623 168.1078 192.0439 14.88562493184704
DTUSAT-2
1 40030U 14033W 17317.49335301 .00000419 00000-0 51517-4 0 9992
2 40030 097.9026 227.2466 0012177 162.5578 197.6059 14.88178316184145
EO-80
1 40032U 14033Y 17317.54205980 .00000398 00000-0 49229-4 0 9992
2 40032 097.9034 227.3000 0012142 162.8327 197.3302 14.88114251184133
ANTELSAT
1 40034U 14033AA 17317.65414945 .00000293 00000-0 51238-4 0 9996
2 40034 97.8371 196.7801 0059014 170.7624 189.4685 14.73802423182945
VELOX-1
1 40057U 14034E 17317.79394013 .00000566 00000-0 87412-4 0 9996
2 40057 98.1945 60.3216 0009653 302.3166 57.7108 14.77267116181848
DAURIA DX 1
1 40071U 14037C 17317.84541107 .00000267 00000-0 41787-4 0 9992
2 40071 98.3515 74.9838 0007321 298.6345 61.4136 14.81087035181125
UKUBE-1
1 40074U 14037F 17317.82074021 .00000622 00000-0 82523-4 0 9997
2 40074 98.3623 79.6099 0003373 297.9741 62.1138 14.83647146181367
HODOYOSHI-1
1 40299U 14070B 17317.79180594 .00001304 00000-0 59095-4 0 9998
2 40299 97.3946 38.2161 0011629 291.9421 180.1687 15.22584062167709
CHUBUSAT-1
1 40300U 14070C 17317.83201132 .00001395 00000-0 65388-4 0 9990
2 40300 97.3854 34.9312 0018952 300.7320 198.1850 15.21216742167532
QSAT-EOS
1 40301U 14070D 17317.82164810 .00003089 00000-0 12957-3 0 9996
2 40301 97.3799 35.4163 0025486 292.8717 186.2359 15.23963339167616
FIREBIRD FU3
1 40377U 15003B 17317.66434566 .00002940 00000-0 12586-3 0 9999
2 40377 99.1115 171.4948 0132998 226.5361 132.4745 15.16269181153656
FIREBIRD FU4
1 40378U 15003C 17317.65480790 .00002737 00000-0 11738-3 0 9991
2 40378 99.1117 171.5303 0133203 226.4682 132.5419 15.16283222153651
GRIFEX
1 40379U 15003D 17317.82302568 .00002188 00000-0 10074-3 0 9999
2 40379 99.1151 168.8718 0139456 235.4850 123.3144 15.13626759153513
NO-84
1 40654U 15025D 17317.38045070 .00012704 00000-0 22543-3 0 01397
2 40654 054.9965 288.4871 0166423 282.0857 076.1553 15.36799865022629
NO-83
1 40655U 15025E 17317.27774180 .00024245 00000-0 32068-3 0 01584
2 40655 054.9800 253.5354 0127443 303.5523 055.3323 15.49135774022738
DEORBITSAIL
1 40719U 15032E 17317.58897722 .00000582 00000-0 91368-4 0 9995
2 40719 097.9635 209.3434 0017299 026.2076 334.0005 14.76232455126360
NUDT-PHONESAT
1 40900U 15049B 17317.82769928 .00002723 00000-0 12812-3 0 9993
2 40900 97.4435 323.7131 0015407 65.9345 294.3500 15.20318356119183
XW-2A
1 40903U 15049E 17317.78610778 .00002320 00000-0 60893-4 0 9995
2 40903 97.4097 345.3060 0016405 87.6020 272.7104 15.39584160120653
XW-2C
1 40906U 15049H 17317.67512051 .00000988 00000-0 56513-4 0 9993
2 40906 97.4575 320.2264 0016637 60.0031 300.2850 15.14854710118868
XW-2D
1 40907U 15049J 17317.77949086 .00001049 00000-0 59579-4 0 9991
2 40907 97.4546 320.0579 0015966 58.0393 302.2389 15.14981388118889
LILACSAT-2
1 40908U 15049K 17317.66845163 .00000554 00000-0 34638-4 0 9990
2 40908 97.4651 319.5720 0017532 57.6686 302.6239 15.13310197118778
XW-2F
1 40910U 15049M 17317.82068419 .00001550 00000-0 83869-4 0 9999
2 40910 97.4560 321.0292 0016715 54.8746 305.4051 15.16011653118816
XW-2B
1 40911U 15049N 17317.85570317 .00001018 00000-0 57991-4 0 9994
2 40911 97.4586 320.5815 0015869 58.2129 302.0646 15.14934871118796
DCBB
1 40912U 15049P 17317.73521792 .00002518 00000-0 12615-3 0 9994
2 40912 97.4521 323.2080 0017084 46.6655 40.0000 15.18172436118974
TW-1C
1 40926U 15051B 17317.78730553 .00010533 00000-0 22070-3 0 9996
2 40926 97.2134 356.3002 0010508 355.6157 94.4604 15.45543241120008
TW-1A
1 40928U 15051D 17317.79471822 .00004059 00000-0 11269-3 0 9994
2 40928 97.2119 350.9034 0013366 27.1031 61.5792 15.37381314119671
IO-86
1 40931U 15052B 17317.18416012 .00000740 00000-0 14103-4 0 9996
2 40931 6.0011 250.3423 0012628 193.1086 166.8753 14.76554407115021
GomX-3
1 40949U 98067HA 16292.18357804 .08527750 12374-4 77882-3 0 9992
2 40949 51.6055 106.7696 0006699 286.1344 73.8944 16.38002265 59645
LQSat
1 40958U 15057A 17317.83094431 .00000068 00000-0 18381-4 0 9994
2 40958 97.9650 30.4325 0016986 310.6801 49.2920 14.72999753113142
AO-85
1 40967U 15058D 17317.48517596 .00000311 00000-0 53798-4 0 01509
2 40967 064.7752 125.9530 0182655 023.9761 336.9713 14.75569732021823
ATHENOXAT-1
1 41168U 15077C 17317.77361799 .00003227 00000-0 14310-3 0 9994
2 41168 14.9826 156.2439 0012329 289.8216 160.2280 15.12178939105714
ChubuSat-2
1 41338U 16012B 17317.16658647 .00000523 00000-0 34326-4 0 9993
2 41338 031.0032 246.0081 0013800 094.6530 265.5682 14.99864916095375
ChubuSat-3
1 41339U 16012C 17317.80675380 .00000611 00000-0 41064-4 0 9993
2 41339 31.0096 240.8529 0013600 108.1133 252.0995 15.00062446 95451
Horyu-4
1 41340U 16012D 17317.17992102 .00000775 00000-0 52861-4 0 9997
2 41340 031.0050 241.2726 0014074 111.8705 248.3428 15.00795609095418
OUFTI-1
1 41458U 16025C 17317.85632210 .00002551 00000-0 13696-3 0 9993
2 41458 98.1691 3.9456 0173602 148.7244 212.4401 15.03915814 85064
e-st@r-II
1 41459U 16025D 17317.69562850 .00002253 00000-0 12229-3 0 9998
2 41459 98.1655 3.6901 0173712 149.8407 211.2895 15.03684760 85036
AAUSAT4
1 41460U 16025E 17317.79337731 .00003804 00000-0 20173-3 0 9999
2 41460 98.1632 4.0101 0166331 146.9100 214.2602 15.04855446 85083
NODES 1
1 41477U 98067HX 17262.38431888 .17021661 12538-4 46079-3 0 9990
2 41477 51.6074 225.8859 0003017 249.6794 110.5489 16.45625800 77086
NODES 2
1 41478U 98067HY 17266.27255257 .13534231 12598-4 22876-3 0 9990
2 41478 51.6086 206.1528 0005980 262.1280 97.9071 16.47641774 77698
LO-87
1 41557U 16033B 17317.84982466 .00001989 00000-0 76162-4 0 9994
2 41557 97.4539 37.3373 0013661 192.6260 167.4639 15.27685661 81271
NuSat2
1 41558U 16033C 17317.83382526 .00001832 00000-0 70741-4 0 9999
2 41558 97.4567 37.3911 0013176 191.0338 169.0614 15.27511781 81262
Lapan A3
1 41603U 16040E 17317.81217847 .00000338 00000-0 19171-4 0 9999
2 41603 97.4430 17.8603 0011834 274.6242 221.3176 15.19460736 77370
Swayam
1 41607U 16040J 17317.39529932 .00001974 00000-0 90728-4 0 9991
2 41607 97.4439 18.1177 0012413 274.9927 84.9892 15.21490505 77288
Pratham
1 41783U 16059A 17317.61531926 .00000076 00000-0 24232-4 0 9996
2 41783 098.1495 017.3008 0034622 053.7440 306.6953 14.62877914060445
AlSat 1N
1 41789U 16059G 17317.75322209 .00000143 00000-0 36385-4 0 9996
2 41789 98.1497 18.2302 0029470 47.1508 313.2153 14.64099161 60490
ScatSat
1 41790U 16059H 17317.59003779 .00000025 00000-0 17541-4 0 9990
2 41790 098.2922 003.9241 0019084 036.0909 324.1570 14.50848120059923
TY-1
1 41844U 16066D 17317.82166269 .00002332 00000-0 10305-3 0 9991
2 41844 97.4072 322.7684 0017759 74.5664 7.9236 15.22578116 56102
CAS-2T
1 41845U 16066E 17317.80846197 .00000210 00000-0 41994-4 0 9997
2 41845 98.7703 336.9765 0366727 163.9486 197.3695 14.37826159 52996
Pegasus-1
1 41846U 16066F 17317.58678791 .00000319 00000-0 58770-4 0 9996
2 41846 098.7738 336.4273 0369163 166.4391 194.7050 14.37180799052937
